| time (UTC) | temp F | wind direction | speed MPH | gust MPH | rain 1hr in | rain 24hr in | rain mn in | humidity % | barometer mb |
| 20260510163534 | 67 | 237 | 3.0 | 7.0 | 0.00 | 0.00 | 0.00 | 30 | 1023.0 |
| 20260510162524 | 65 | 358 | 4.0 | 9.0 | 0.00 | 0.00 | 0.00 | 32 | 1022.4 |
| 20260510161615 | 65 | 41 | 3.0 | 7.0 | 0.00 | 0.00 | 0.00 | 32 | 1022.6 |
| 20260510160625 | 63 | 14 | 2.0 | 6.0 | 0.00 | 0.00 | 0.00 | 35 | 1022.8 |
| 20260510155555 | 61 | 19 | 2.0 | 4.0 | 0.00 | 0.00 | 0.00 | 37 | 1023.0 |
| 20260510154546 | 59 | 2 | 3.0 | 7.0 | 0.00 | 0.00 | 0.00 | 39 | 1023.2 |
| 20260510153536 | 59 | 5 | 6.0 | 8.0 | 0.00 | 0.00 | 0.00 | 40 | 1023.5 |
| 20260510152525 | 59 | 348 | 7.0 | 13.0 | 0.00 | 0.00 | 0.00 | 40 | 1023.7 |
| 20260510151616 | 58 | 3 | 6.0 | 10.0 | 0.00 | 0.00 | 0.00 | 41 | 1023.8 |
| 20260510150606 | 57 | 354 | 7.0 | 13.0 | 0.00 | 0.00 | 0.00 | 42 | 1023.8 |
| 20260510145556 | 57 | 6 | 9.0 | 17.0 | 0.00 | 0.00 | 0.00 | 42 | 1024.1 |
| 20260510144607 | 57 | 351 | 7.0 | 16.0 | 0.00 | 0.00 | 0.00 | 43 | 1024.3 |
| 20260510143536 | 57 | 351 | 8.0 | 15.0 | 0.00 | 0.00 | 0.00 | 43 | 1024.1 |
| 20260510142526 | 57 | 340 | 7.0 | 18.0 | 0.00 | 0.00 | 0.00 | 42 | 1023.9 |
| 20260510141516 | 57 | 348 | 6.0 | 17.0 | 0.00 | 0.00 | 0.00 | 41 | 1023.3 |
| 20260510140607 | 57 | 336 | 6.0 | 13.0 | 0.00 | 0.00 | 0.00 | 41 | 1023.2 |
| 20260510135557 | 57 | 341 | 5.0 | 15.0 | 0.00 | 0.00 | 0.00 | 40 | 1023.1 |
| 20260510134547 | 58 | 336 | 6.0 | 12.0 | 0.00 | 0.00 | 0.00 | 37 | 1023.1 |
| 20260510133537 | 59 | 340 | 8.0 | 17.0 | 0.00 | 0.00 | 0.00 | 35 | 1022.6 |
| 20260510132547 | 59 | 354 | 6.0 | 14.0 | 0.00 | 0.00 | 0.00 | 35 | 1022.5 |
| 20260510131517 | 58 | 336 | 5.0 | 14.0 | 0.00 | 0.00 | 0.00 | 35 | 1022.2 |
| 20260510130608 | 58 | 357 | 7.0 | 15.0 | 0.00 | 0.00 | 0.00 | 34 | 1021.8 |
| 20260510125558 | 58 | 12 | 9.0 | 17.0 | 0.00 | 0.00 | 0.00 | 34 | 1021.5 |
| 20260510124548 | 59 | 351 | 8.0 | 16.0 | 0.00 | 0.00 | 0.00 | 33 | 1021.4 |
| 20260510123538 | 59 | 343 | 9.0 | 17.0 | 0.00 | 0.00 | 0.00 | 32 | 1021.1 |
| 20260510122528 | 59 | 345 | 10.0 | 20.0 | 0.00 | 0.00 | 0.00 | 31 | 1020.9 |
| 20260510121518 | 58 | 342 | 9.0 | 19.0 | 0.00 | 0.00 | 0.00 | 30 | 1020.4 |
| 20260510120609 | 59 | 333 | 5.0 | 13.0 | 0.00 | 0.00 | 0.00 | 28 | 1019.8 |
| 20260510115559 | 58 | 328 | 3.0 | 9.0 | 0.00 | 0.00 | 0.00 | 28 | 1019.7 |
| 20260510114549 | 58 | 326 | 1.0 | 7.0 | 0.00 | 0.00 | 0.00 | 27 | 1019.5 |
| 20260510113539 | 58 | 6 | 4.0 | 9.0 | 0.00 | 0.00 | 0.00 | 26 | 1019.4 |
| 20260510112528 | 59 | 336 | 1.0 | 4.0 | 0.00 | 0.00 | 0.00 | 26 | 1019.3 |
| 20260510111518 | 60 | 350 | 1.0 | 6.0 | 0.00 | 0.00 | 0.00 | 25 | 1019.3 |
| 20260510110629 | 61 | 10 | 3.0 | 8.0 | 0.00 | 0.00 | 0.00 | 24 | 1019.1 |
| 20260510105600 | 59 | 269 | 2.0 | 5.0 | 0.00 | 0.00 | 0.00 | 24 | 1018.7 |
| 20260510104550 | 60 | 17 | 5.0 | 12.0 | 0.00 | 0.00 | 0.00 | 25 | 1018.7 |
| 20260510103539 | 61 | 192 | 3.0 | 5.0 | 0.00 | 0.00 | 0.00 | 22 | 1018.2 |
| 20260510102529 | 60 | 206 | 4.0 | 6.0 | 0.00 | 0.00 | 0.00 | 23 | 1018.3 |
| 20260510101519 | 59 | 159 | 1.0 | 3.0 | 0.00 | 0.00 | 0.00 | 25 | 1018.3 |
| 20260510100630 | 56 | 205 | 3.0 | 5.0 | 0.00 | 0.00 | 0.00 | 28 | 1018.4 |
| 20260510095601 | 51 | 155 | 2.0 | 3.0 | 0.00 | 0.00 | 0.00 | 35 | 1018.1 |
| 20260510094611 | 52 | 116 | 1.0 | 2.0 | 0.00 | 0.00 | 0.00 | 34 | 1018.0 |
| 20260510093601 | 53 | 155 | 0.0 | 2.0 | 0.00 | 0.00 | 0.00 | 33 | 1017.8 |
| 20260510092531 | 53 | 182 | 1.0 | 2.0 | 0.00 | 0.00 | 0.00 | 32 | 1018.0 |
| 20260510091521 | 54 | 224 | 2.0 | 4.0 | 0.00 | 0.00 | 0.00 | 31 | 1017.9 |
| 20260510090612 | 56 | 218 | 1.0 | 3.0 | 0.00 | 0.00 | 0.00 | 29 | 1017.8 |
| 20260510085602 | 59 | 225 | 1.0 | 2.0 | 0.00 | 0.00 | 0.00 | 26 | 1017.9 |
| 20260510084612 | 60 | 186 | 1.0 | 3.0 | 0.00 | 0.00 | 0.00 | 26 | 1017.7 |
| 20260510083542 | 60 | 165 | 2.0 | 5.0 | 0.00 | 0.00 | 0.00 | 25 | 1017.7 |
| 20260510082532 | 59 | 153 | 3.0 | 4.0 | 0.00 | 0.00 | 0.00 | 28 | 1017.7 |
| 20260510081522 | 60 | 106 | 0.0 | 2.0 | 0.00 | 0.00 | 0.00 | 27 | 1017.5 |
| 20260510080613 | 62 | 205 | 0.0 | 2.0 | 0.00 | 0.00 | 0.00 | 26 | 1017.7 |
| 20260510075644 | 63 | 199 | 2.0 | 3.0 | 0.00 | 0.00 | 0.00 | 25 | 1017.8 |
| 20260510074554 | 65 | 121 | 1.0 | 2.0 | 0.00 | 0.00 | 0.00 | 24 | 1017.6 |
| 20260510073543 | 67 | 154 | 1.0 | 4.0 | 0.00 | 0.00 | 0.00 | 23 | 1017.6 |
| 20260510072533 | 68 | 186 | 1.0 | 5.0 | 0.00 | 0.00 | 0.00 | 20 | 1017.8 |
| 20260510071523 | 68 | 190 | 2.0 | 5.0 | 0.00 | 0.00 | 0.00 | 20 | 1017.8 |
| 20260510070634 | 68 | 216 | 4.0 | 8.0 | 0.00 | 0.00 | 0.00 | 20 | 1017.9 |
| 20260510065605 | 67 | 219 | 3.0 | 7.0 | 0.00 | 0.00 | 0.00 | 22 | 1018.0 |
| 20260510064555 | 66 | 202 | 1.0 | 3.0 | 0.00 | 0.00 | 0.00 | 23 | 1018.1 |
| 20260510063544 | 68 | 235 | 1.0 | 9.0 | 0.00 | 0.00 | 0.00 | 22 | 1018.0 |
| 20260510062534 | 67 | 225 | 6.0 | 14.0 | 0.00 | 0.00 | 0.00 | 22 | 1017.9 |
| 20260510061525 | 65 | 197 | 3.0 | 7.0 | 0.00 | 0.00 | 0.00 | 23 | 1018.2 |
| 20260510060615 | 65 | 203 | 2.0 | 4.0 | 0.00 | 0.00 | 0.00 | 23 | 1018.3 |
| 20260510055605 | 65 | 182 | 2.0 | 4.0 | 0.00 | 0.00 | 0.00 | 23 | 1018.2 |
| 20260510054555 | 65 | 173 | 1.0 | 2.0 | 0.00 | 0.00 | 0.00 | 23 | 1018.3 |
| 20260510053545 | 67 | 203 | 2.0 | 4.0 | 0.00 | 0.00 | 0.00 | 22 | 1018.2 |
| 20260510052535 | 68 | 202 | 4.0 | 7.0 | 0.00 | 0.00 | 0.00 | 21 | 1018.2 |
| 20260510051525 | 68 | 203 | 4.0 | 9.0 | 0.00 | 0.00 | 0.00 | 21 | 1018.2 |
| 20260510050616 | 68 | 200 | 2.0 | 7.0 | 0.00 | 0.00 | 0.00 | 21 | 1018.3 |
| 20260510045606 | 69 | 215 | 3.0 | 9.0 | 0.00 | 0.00 | 0.00 | 20 | 1018.4 |
| 20260510044556 | 69 | 204 | 3.0 | 12.0 | 0.00 | 0.00 | 0.00 | 20 | 1018.4 |
| 20260510043546 | 69 | 216 | 6.0 | 11.0 | 0.00 | 0.00 | 0.00 | 20 | 1018.4 |
| 20260510042536 | 68 | 205 | 5.0 | 10.0 | 0.00 | 0.00 | 0.00 | 21 | 1018.3 |
| 20260510041526 | 68 | 209 | 6.0 | 11.0 | 0.00 | 0.00 | 0.00 | 21 | 1018.5 |
| 20260510040516 | 65 | 219 | 8.0 | 15.0 | 0.00 | 0.00 | 0.00 | 22 | 1018.6 |
| 20260510035607 | 58 | 217 | 3.0 | 7.0 | 0.00 | 0.00 | 0.00 | 26 | 1018.3 |
| 20260510034558 | 59 | 167 | 2.0 | 3.0 | 0.00 | 0.00 | 0.00 | 26 | 1018.1 |
| 20260510033607 | 59 | 158 | 2.0 | 3.0 | 0.00 | 0.00 | 0.00 | 25 | 1018.0 |
| 20260510032537 | 59 | 167 | 2.0 | 3.0 | 0.00 | 0.00 | 0.00 | 25 | 1017.9 |
| 20260510031547 | 60 | 176 | 1.0 | 3.0 | 0.00 | 0.00 | 0.00 | 24 | 1017.8 |
| 20260510030517 | 61 | 186 | 1.0 | 3.0 | 0.00 | 0.00 | 0.00 | 23 | 1017.7 |
| 20260510025608 | 64 | 223 | 2.0 | 3.0 | 0.00 | 0.00 | 0.00 | 21 | 1017.5 |
| 20260510024558 | 66 | 207 | 1.0 | 3.0 | 0.00 | 0.00 | 0.00 | 19 | 1017.4 |
| 20260510023548 | 67 | 180 | 1.0 | 3.0 | 0.00 | 0.00 | 0.00 | 19 | 1017.2 |
| 20260510022538 | 68 | 213 | 1.0 | 3.0 | 0.00 | 0.00 | 0.00 | 18 | 1017.2 |
| 20260510021528 | 69 | 215 | 1.0 | 4.0 | 0.00 | 0.00 | 0.00 | 17 | 1017.1 |
| 20260510020518 | 70 | 180 | 2.0 | 4.0 | 0.00 | 0.00 | 0.00 | 17 | 1017.0 |
| 20260510015609 | 71 | 204 | 3.0 | 5.0 | 0.00 | 0.00 | 0.00 | 16 | 1017.0 |
| 20260510014620 | 72 | 207 | 4.0 | 6.0 | 0.00 | 0.00 | 0.00 | 16 | 1016.7 |
| 20260510013549 | 72 | 213 | 5.0 | 9.0 | 0.00 | 0.00 | 0.00 | 15 | 1016.7 |
| 20260510012539 | 73 | 222 | 6.0 | 13.0 | 0.00 | 0.00 | 0.00 | 15 | 1016.7 |
| 20260510011529 | 74 | 229 | 5.0 | 8.0 | 0.00 | 0.00 | 0.00 | 15 | 1016.4 |
| 20260510010519 | 75 | 222 | 4.0 | 8.0 | 0.00 | 0.00 | 0.00 | 14 | 1016.5 |
| 20260510005610 | 75 | 248 | 4.0 | 7.0 | 0.00 | 0.00 | 0.00 | 14 | 1016.6 |
| 20260510004600 | 75 | 236 | 7.0 | 11.0 | 0.00 | 0.00 | 0.00 | 14 | 1016.5 |
| 20260510003550 | 76 | 228 | 6.0 | 13.0 | 0.00 | 0.00 | 0.00 | 14 | 1016.4 |
| 20260510002540 | 78 | 236 | 7.0 | 14.0 | 0.00 | 0.00 | 0.00 | 13 | 1016.3 |
| 20260510001529 | 78 | 262 | 4.0 | 9.0 | 0.00 | 0.00 | 0.00 | 13 | 1016.4 |
| 20260510000540 | 78 | 244 | 6.0 | 15.0 | 0.00 | 0.00 | 0.00 | 13 | 1016.6 |
| 20260509235611 | 79 | 249 | 4.0 | 15.0 | 0.00 | 0.00 | 0.00 | 13 | 1016.4 |
| 20260509234601 | 79 | 242 | 5.0 | 10.0 | 0.00 | 0.00 | 0.00 | 12 | 1016.5 |
| 20260509233551 | 78 | 322 | 2.0 | 6.0 | 0.00 | 0.00 | 0.00 | 13 | 1016.5 |
| 20260509232541 | 78 | 295 | 2.0 | 10.0 | 0.00 | 0.00 | 0.00 | 13 | 1016.6 |
| 20260509231531 | 79 | 239 | 6.0 | 12.0 | 0.00 | 0.00 | 0.00 | 13 | 1016.8 |
| 20260509230521 | 79 | 283 | 7.0 | 13.0 | 0.00 | 0.00 | 0.00 | 13 | 1016.6 |
| 20260509225613 | 78 | 241 | 4.0 | 13.0 | 0.00 | 0.00 | 0.00 | 12 | 1016.8 |
| 20260509224642 | 77 | 253 | 5.0 | 12.0 | 0.00 | 0.00 | 0.00 | 13 | 1017.0 |
| 20260509223612 | 79 | 241 | 7.0 | 17.0 | 0.00 | 0.00 | 0.00 | 13 | 1017.0 |
| 20260509222542 | 79 | 293 | 7.0 | 17.0 | 0.00 | 0.00 | 0.00 | 13 | 1017.1 |
| 20260509221552 | 77 | 344 | 4.0 | 11.0 | 0.00 | 0.00 | 0.00 | 13 | 1017.1 |
| 20260509220522 | 79 | 284 | 5.0 | 12.0 | 0.00 | 0.00 | 0.00 | 12 | 1017.3 |
| 20260509215613 | 79 | 299 | 4.0 | 9.0 | 0.00 | 0.00 | 0.00 | 12 | 1017.2 |
| 20260509214603 | 79 | 277 | 3.0 | 12.0 | 0.00 | 0.00 | 0.00 | 13 | 1017.3 |
| 20260509213553 | 79 | 287 | 5.0 | 10.0 | 0.00 | 0.00 | 0.00 | 13 | 1017.5 |
| 20260509212543 | 79 | 279 | 4.0 | 12.0 | 0.00 | 0.00 | 0.00 | 13 | 1017.6 |
| 20260509211533 | 78 | 244 | 7.0 | 14.0 | 0.00 | 0.00 | 0.00 | 13 | 1017.9 |
| 20260509210523 | 79 | 240 | 7.0 | 18.0 | 0.00 | 0.00 | 0.00 | 13 | 1018.0 |
| 20260509205614 | 80 | 284 | 5.0 | 13.0 | 0.00 | 0.00 | 0.00 | 13 | 1018.1 |
| 20260509204604 | 79 | 324 | 7.0 | 11.0 | 0.00 | 0.00 | 0.00 | 13 | 1018.1 |
| 20260509203554 | 79 | 252 | 6.0 | 15.0 | 0.00 | 0.00 | 0.00 | 13 | 1018.2 |
| 20260509202544 | 78 | 279 | 6.0 | 12.0 | 0.00 | 0.00 | 0.00 | 13 | 1018.4 |
| 20260509201554 | 78 | 329 | 7.0 | 20.0 | 0.00 | 0.00 | 0.00 | 13 | 1018.5 |
| 20260509200524 | 78 | 275 | 4.0 | 12.0 | 0.00 | 0.00 | 0.00 | 13 | 1018.7 |
| 20260509195616 | 78 | 307 | 5.0 | 11.0 | 0.00 | 0.00 | 0.00 | 13 | 1018.6 |
| 20260509194605 | 77 | 342 | 3.0 | 10.0 | 0.00 | 0.00 | 0.00 | 13 | 1018.8 |
| 20260509193555 | 79 | 257 | 7.0 | 14.0 | 0.00 | 0.00 | 0.00 | 13 | 1019.0 |
| 20260509192545 | 77 | 290 | 3.0 | 16.0 | 0.00 | 0.00 | 0.00 | 13 | 1018.9 |
| 20260509191535 | 78 | 247 | 4.0 | 12.0 | 0.00 | 0.00 | 0.00 | 13 | 1019.0 |
| 20260509190525 | 76 | 222 | 7.0 | 13.0 | 0.00 | 0.00 | 0.00 | 13 | 1018.9 |
| 20260509185616 | 77 | 292 | 3.0 | 8.0 | 0.00 | 0.00 | 0.00 | 14 | 1019.1 |
| 20260509184605 | 77 | 218 | 13.0 | 19.0 | 0.00 | 0.00 | 0.00 | 13 | 1019.2 |
| 20260509183636 | 77 | 246 | 5.0 | 12.0 | 0.00 | 0.00 | 0.00 | 13 | 1019.4 |
| 20260509182546 | 77 | 348 | 4.0 | 9.0 | 0.00 | 0.00 | 0.00 | 13 | 1019.5 |
| 20260509181556 | 77 | 255 | 6.0 | 12.0 | 0.00 | 0.00 | 0.00 | 14 | 1019.6 |
| 20260509180525 | 76 | 317 | 5.0 | 11.0 | 0.00 | 0.00 | 0.00 | 14 | 1019.7 |
| 20260509175556 | 76 | 338 | 6.0 | 13.0 | 0.00 | 0.00 | 0.00 | 15 | 1019.8 |
| 20260509174607 | 76 | 1 | 8.0 | 16.0 | 0.00 | 0.00 | 0.00 | 15 | 1019.7 |
| 20260509173557 | 76 | 351 | 6.0 | 10.0 | 0.00 | 0.00 | 0.00 | 15 | 1019.9 |
| 20260509172546 | 76 | 313 | 7.0 | 16.0 | 0.00 | 0.00 | 0.00 | 15 | 1019.9 |
| 20260509171537 | 75 | 327 | 6.0 | 13.0 | 0.00 | 0.00 | 0.00 | 15 | 1019.8 |
| 20260509170526 | 75 | 330 | 8.0 | 15.0 | 0.00 | 0.00 | 0.00 | 15 | 1019.8 |
| 20260509165517 | 76 | 334 | 8.0 | 15.0 | 0.00 | 0.00 | 0.00 | 15 | 1019.8 |
| 20260509164608 | 76 | 336 | 8.0 | 14.0 | 0.00 | 0.00 | 0.00 | 15 | 1019.7 |